Year,Month,Day,Hour,Minute,Value (Times are PST for temperature in C)
2011,08,13,00,00,12.50
2011,08,13,00,01,12.50
2011,08,13,00,02,12.50
2011,08,13,00,03,12.50
2011,08,13,00,04,12.50
2011,08,13,00,05,12.50
2011,08,13,00,06,12.50
2011,08,13,00,07,12.50
2011,08,13,00,08,12.50
2011,08,13,00,09,12.50
2011,08,13,00,10,12.50
2011,08,13,00,11,12.50
2011,08,13,00,12,12.50
2011,08,13,00,13,12.50
2011,08,13,00,14,12.50
2011,08,13,00,15,12.50
2011,08,13,00,16,12.50
2011,08,13,00,17,12.40
2011,08,13,00,18,12.40
2011,08,13,00,19,12.40
2011,08,13,00,20,12.40
2011,08,13,00,21,12.40
2011,08,13,00,22,12.40
2011,08,13,00,23,12.30
2011,08,13,00,24,12.30
2011,08,13,00,25,12.30
2011,08,13,00,26,12.30
2011,08,13,00,27,12.30
2011,08,13,00,28,12.30
2011,08,13,00,29,12.30
2011,08,13,00,30,12.30
2011,08,13,00,31,12.30
2011,08,13,00,32,12.30
2011,08,13,00,33,12.30
2011,08,13,00,34,12.20
2011,08,13,00,35,12.20
2011,08,13,00,36,12.20
2011,08,13,00,37,12.20
2011,08,13,00,38,12.20
2011,08,13,00,39,12.20
2011,08,13,00,40,12.20
2011,08,13,00,41,12.20
2011,08,13,00,42,12.20
2011,08,13,00,43,12.20
2011,08,13,00,44,12.20
2011,08,13,00,45,12.20
2011,08,13,00,46,12.10
2011,08,13,00,47,12.10
2011,08,13,00,48,12.10
2011,08,13,00,49,12.00
2011,08,13,00,50,12.00
2011,08,13,00,51,12.00
2011,08,13,00,52,11.90
2011,08,13,00,53,11.90
2011,08,13,00,54,11.90
2011,08,13,00,55,11.90
2011,08,13,00,56,11.80
2011,08,13,00,57,11.80
2011,08,13,00,58,11.80
2011,08,13,00,59,11.70
2011,08,13,01,00,11.70
2011,08,13,01,01,11.70
2011,08,13,01,02,11.70
2011,08,13,01,03,11.70
2011,08,13,01,04,11.70
2011,08,13,01,05,11.70
2011,08,13,01,06,11.70
2011,08,13,01,07,11.60
2011,08,13,01,08,11.60
2011,08,13,01,09,11.60
2011,08,13,01,10,11.60
2011,08,13,01,11,11.60
2011,08,13,01,12,11.60
2011,08,13,01,13,11.60
2011,08,13,01,14,11.60
2011,08,13,01,15,11.60
2011,08,13,01,16,11.60
2011,08,13,01,17,11.60
2011,08,13,01,18,11.60
2011,08,13,01,19,11.50
2011,08,13,01,20,11.50
2011,08,13,01,21,11.50
2011,08,13,01,22,11.50
2011,08,13,01,23,11.50
2011,08,13,01,24,11.50
2011,08,13,01,25,11.50
2011,08,13,01,26,11.40
2011,08,13,01,27,11.40
2011,08,13,01,28,11.40
2011,08,13,01,29,11.40
2011,08,13,01,30,11.40
2011,08,13,01,31,11.40
2011,08,13,01,32,11.40
2011,08,13,01,33,11.40
2011,08,13,01,34,11.40
2011,08,13,01,35,11.40
2011,08,13,01,36,11.30
2011,08,13,01,37,11.30
2011,08,13,01,38,11.30
2011,08,13,01,39,11.30
2011,08,13,01,40,11.30
2011,08,13,01,41,11.30
2011,08,13,01,42,11.30
2011,08,13,01,43,11.30
2011,08,13,01,44,11.30
2011,08,13,01,45,11.30
2011,08,13,01,46,11.30
2011,08,13,01,47,11.30
2011,08,13,01,48,11.30
2011,08,13,01,49,11.30
2011,08,13,01,50,11.30
2011,08,13,01,51,11.30
2011,08,13,01,52,11.30
2011,08,13,01,53,11.30
2011,08,13,01,54,11.30
2011,08,13,01,55,11.30
2011,08,13,01,56,11.20
2011,08,13,01,57,11.20
2011,08,13,01,58,11.20
2011,08,13,01,59,11.20
2011,08,13,02,00,11.20
2011,08,13,02,01,11.10
2011,08,13,02,02,11.10
2011,08,13,02,03,11.10
2011,08,13,02,04,11.10
2011,08,13,02,05,11.10
2011,08,13,02,06,11.10
2011,08,13,02,07,11.10
2011,08,13,02,08,11.10
2011,08,13,02,09,11.10
2011,08,13,02,10,11.10
2011,08,13,02,11,11.10
2011,08,13,02,12,11.10
2011,08,13,02,13,11.10
2011,08,13,02,14,11.10
2011,08,13,02,15,11.10
2011,08,13,02,16,11.10
2011,08,13,02,17,11.10
2011,08,13,02,18,11.10
2011,08,13,02,19,11.10
2011,08,13,02,20,11.10
2011,08,13,02,21,11.10
2011,08,13,02,22,11.10
2011,08,13,02,23,11.00
2011,08,13,02,24,11.00
2011,08,13,02,25,11.00
2011,08,13,02,26,11.00
2011,08,13,02,27,11.00
2011,08,13,02,28,10.90
2011,08,13,02,29,10.90
2011,08,13,02,30,10.90
2011,08,13,02,31,10.90
2011,08,13,02,32,10.90
2011,08,13,02,33,10.90
2011,08,13,02,34,10.80
2011,08,13,02,35,10.80
2011,08,13,02,36,10.80
2011,08,13,02,37,10.80
2011,08,13,02,38,10.80
2011,08,13,02,39,10.80
2011,08,13,02,40,10.80
2011,08,13,02,41,10.80
2011,08,13,02,42,10.80
2011,08,13,02,43,10.80
2011,08,13,02,44,10.80
2011,08,13,02,45,10.80
2011,08,13,02,46,10.80
2011,08,13,02,47,10.70
2011,08,13,02,48,10.70
2011,08,13,02,49,10.70
2011,08,13,02,50,10.70
2011,08,13,02,51,10.60
2011,08,13,02,52,10.60
2011,08,13,02,53,10.60
2011,08,13,02,54,10.60
2011,08,13,02,55,10.60
2011,08,13,02,56,10.60
2011,08,13,02,57,10.60
2011,08,13,02,58,10.60
2011,08,13,02,59,10.60
2011,08,13,03,00,10.60
2011,08,13,03,01,10.60
2011,08,13,03,02,10.50
2011,08,13,03,06,10.50
2011,08,13,03,07,10.50
2011,08,13,03,08,10.40
2011,08,13,03,09,10.40
2011,08,13,03,10,10.40
2011,08,13,03,11,10.40
2011,08,13,03,12,10.40
2011,08,13,03,13,10.40
2011,08,13,03,14,10.40
2011,08,13,03,15,10.40
2011,08,13,03,16,10.40
2011,08,13,03,17,10.40
2011,08,13,03,18,10.40
2011,08,13,03,19,10.40
2011,08,13,03,20,10.40
2011,08,13,03,21,10.40
2011,08,13,03,22,10.40
2011,08,13,03,23,10.40
2011,08,13,03,24,10.40
2011,08,13,03,25,10.40
2011,08,13,03,26,10.30
2011,08,13,03,27,10.30
2011,08,13,03,28,10.30
2011,08,13,03,29,10.30
2011,08,13,03,30,10.30
2011,08,13,03,31,10.30
2011,08,13,03,32,10.30
2011,08,13,03,33,10.20
2011,08,13,03,34,10.20
2011,08,13,03,35,10.20
2011,08,13,03,36,10.20
2011,08,13,03,37,10.20
2011,08,13,03,38,10.20
2011,08,13,03,39,10.20
2011,08,13,03,40,10.20
2011,08,13,03,41,10.10
2011,08,13,03,42,10.10
2011,08,13,03,43,10.10
2011,08,13,03,44,10.10
2011,08,13,03,45,10.10
2011,08,13,03,46,10.10
2011,08,13,03,47,10.10
2011,08,13,03,48,10.10
2011,08,13,03,49,10.10
2011,08,13,03,50,10.10
2011,08,13,03,51,10.10
2011,08,13,03,52,10.00
2011,08,13,03,53,10.00
2011,08,13,03,54,10.00
2011,08,13,03,55,10.00
2011,08,13,03,56,10.00
2011,08,13,03,57,10.00
2011,08,13,03,58,10.00
2011,08,13,03,59,9.90
2011,08,13,04,00,9.90
2011,08,13,04,01,9.90
2011,08,13,04,02,9.90
2011,08,13,04,03,9.90
2011,08,13,04,04,9.90
2011,08,13,04,05,9.90
2011,08,13,04,06,9.90
2011,08,13,04,07,9.90
2011,08,13,04,08,9.90
2011,08,13,04,09,9.90
2011,08,13,04,10,9.90
2011,08,13,04,11,9.90
2011,08,13,04,12,9.90
2011,08,13,04,13,9.90
2011,08,13,04,14,9.90
2011,08,13,04,15,9.80
2011,08,13,04,16,9.80
2011,08,13,04,17,9.80
2011,08,13,04,18,9.80
2011,08,13,04,19,9.80
2011,08,13,04,20,9.80
2011,08,13,04,21,9.70
2011,08,13,04,22,9.70
2011,08,13,04,23,9.70
2011,08,13,04,24,9.70
2011,08,13,04,25,9.70
2011,08,13,04,26,9.70
2011,08,13,04,27,9.70
2011,08,13,04,28,9.70
2011,08,13,04,29,9.70
2011,08,13,04,30,9.70
2011,08,13,04,31,9.70
2011,08,13,04,32,9.70
2011,08,13,04,33,9.70
2011,08,13,04,34,9.70
2011,08,13,04,35,9.70
2011,08,13,04,36,9.60
2011,08,13,04,37,9.60
2011,08,13,04,38,9.60
2011,08,13,04,39,9.60
2011,08,13,04,40,9.60
2011,08,13,04,41,9.60
2011,08,13,04,42,9.60
2011,08,13,04,43,9.60
2011,08,13,04,44,9.70
2011,08,13,04,45,9.70
2011,08,13,04,46,9.60
2011,08,13,04,47,9.60
2011,08,13,04,48,9.60
2011,08,13,04,49,9.60
2011,08,13,04,50,9.60
2011,08,13,04,51,9.60
2011,08,13,04,52,9.60
2011,08,13,04,53,9.60
2011,08,13,04,54,9.60
2011,08,13,04,55,9.60
2011,08,13,04,56,9.50
2011,08,13,04,57,9.50
2011,08,13,04,58,9.50
2011,08,13,04,59,9.50
2011,08,13,05,00,9.50
2011,08,13,05,01,9.50
2011,08,13,05,02,9.50
2011,08,13,05,03,9.50
2011,08,13,05,04,9.50
2011,08,13,05,05,9.50
2011,08,13,05,06,9.50
2011,08,13,05,07,9.50
2011,08,13,05,08,9.50
2011,08,13,05,09,9.50
2011,08,13,05,10,9.50
2011,08,13,05,11,9.50
2011,08,13,05,12,9.50
2011,08,13,05,13,9.50
2011,08,13,05,14,9.40
2011,08,13,05,15,9.40
2011,08,13,05,16,9.40
2011,08,13,05,17,9.40
2011,08,13,05,18,9.40
2011,08,13,05,19,9.40
2011,08,13,05,20,9.40
2011,08,13,05,21,9.40
2011,08,13,05,22,9.40
2011,08,13,05,23,9.40
2011,08,13,05,24,9.40
2011,08,13,05,25,9.40
2011,08,13,05,26,9.40
2011,08,13,05,27,9.40
2011,08,13,05,28,9.40
2011,08,13,05,29,9.30
2011,08,13,05,30,9.30
2011,08,13,05,31,9.30
2011,08,13,05,32,9.30
2011,08,13,05,33,9.30
2011,08,13,05,34,9.30
2011,08,13,05,35,9.30
2011,08,13,05,36,9.30
2011,08,13,05,37,9.30
2011,08,13,05,38,9.20
2011,08,13,05,39,9.20
2011,08,13,05,40,9.20
2011,08,13,05,41,9.10
2011,08,13,05,42,9.10
2011,08,13,05,43,9.10
2011,08,13,05,44,9.10
2011,08,13,05,45,9.10
2011,08,13,05,46,9.00
2011,08,13,05,47,9.00
2011,08,13,05,48,9.00
2011,08,13,05,49,9.00
2011,08,13,05,50,9.00
2011,08,13,05,51,9.00
2011,08,13,05,52,8.90
2011,08,13,05,53,8.90
2011,08,13,05,54,8.90
2011,08,13,05,55,8.90
2011,08,13,05,56,8.90
2011,08,13,05,57,8.80
2011,08,13,05,58,8.80
2011,08,13,05,59,8.80
2011,08,13,06,00,8.80
2011,08,13,06,01,8.80
2011,08,13,06,02,8.90
2011,08,13,06,03,8.90
2011,08,13,06,04,8.90
2011,08,13,06,05,8.90
2011,08,13,06,06,8.90
2011,08,13,06,07,8.90
2011,08,13,06,08,8.90
2011,08,13,06,09,8.90
2011,08,13,06,10,8.90
2011,08,13,06,11,8.90
2011,08,13,06,12,8.90
2011,08,13,06,13,8.90
2011,08,13,06,14,8.90
2011,08,13,06,15,9.00
2011,08,13,06,16,9.00
2011,08,13,06,17,9.00
2011,08,13,06,18,9.00
2011,08,13,06,19,9.00
2011,08,13,06,20,9.00
2011,08,13,06,21,9.00
2011,08,13,06,22,9.00
2011,08,13,06,23,9.00
2011,08,13,06,24,9.00
2011,08,13,06,25,9.00
2011,08,13,06,26,9.10
2011,08,13,06,27,9.10
2011,08,13,06,28,9.10
2011,08,13,06,29,9.10
2011,08,13,06,30,9.10
2011,08,13,06,31,9.10
2011,08,13,06,32,9.10
2011,08,13,06,33,9.10
2011,08,13,06,34,9.10
2011,08,13,06,35,9.20
2011,08,13,06,36,9.20
2011,08,13,06,37,9.20
2011,08,13,06,38,9.20
2011,08,13,06,39,9.20
2011,08,13,06,40,9.20
2011,08,13,06,41,9.20
2011,08,13,06,42,9.20
2011,08,13,06,43,9.20
2011,08,13,06,44,9.20
2011,08,13,06,45,9.20
2011,08,13,06,46,9.20
2011,08,13,06,47,9.20
2011,08,13,06,48,9.20
2011,08,13,06,49,9.20
2011,08,13,06,50,9.20
2011,08,13,06,51,9.20
2011,08,13,06,52,9.20
2011,08,13,06,53,9.20
2011,08,13,06,54,9.20
2011,08,13,06,55,9.20
2011,08,13,06,56,9.30
2011,08,13,06,57,9.30
2011,08,13,06,58,9.30
2011,08,13,06,59,9.30
2011,08,13,07,00,9.30
2011,08,13,07,01,9.30
2011,08,13,07,02,9.30
2011,08,13,07,03,9.30
2011,08,13,07,04,9.30
2011,08,13,07,05,9.30
2011,08,13,07,06,9.30
2011,08,13,07,07,9.30
2011,08,13,07,08,9.30
2011,08,13,07,09,9.40
2011,08,13,07,10,9.40
2011,08,13,07,11,9.40
2011,08,13,07,12,9.40
2011,08,13,07,13,9.50
2011,08,13,07,14,9.50
2011,08,13,07,15,9.50
2011,08,13,07,16,9.60
2011,08,13,07,17,9.60
2011,08,13,07,18,9.60
2011,08,13,07,19,9.60
2011,08,13,07,20,9.70
2011,08,13,07,21,9.70
2011,08,13,07,22,9.70
2011,08,13,07,23,9.80
2011,08,13,07,24,9.80
2011,08,13,07,25,9.80
2011,08,13,07,26,9.90
2011,08,13,07,27,9.90
2011,08,13,07,28,10.00
2011,08,13,07,29,10.00
2011,08,13,07,30,10.10
2011,08,13,07,31,10.10
2011,08,13,07,32,10.20
2011,08,13,07,33,10.20
2011,08,13,07,34,10.20
2011,08,13,07,35,10.30
2011,08,13,07,36,10.30
2011,08,13,07,37,10.30
2011,08,13,07,38,10.40
2011,08,13,07,39,10.40
2011,08,13,07,40,10.50
2011,08,13,07,41,10.60
2011,08,13,07,42,10.70
2011,08,13,07,43,10.80
2011,08,13,07,44,10.80
2011,08,13,07,45,10.90
2011,08,13,07,46,11.00
2011,08,13,07,47,11.00
2011,08,13,07,48,11.10
2011,08,13,07,49,11.10
2011,08,13,07,50,11.20
2011,08,13,07,51,11.20
2011,08,13,07,52,11.30
2011,08,13,07,53,11.30
2011,08,13,07,54,11.40
2011,08,13,07,55,11.40
2011,08,13,07,56,11.50
2011,08,13,07,57,11.60
2011,08,13,07,58,11.60
2011,08,13,07,59,11.60
2011,08,13,08,00,11.70
2011,08,13,08,01,11.70
2011,08,13,08,02,11.70
2011,08,13,08,03,11.80
2011,08,13,08,04,11.80
2011,08,13,08,05,11.80
2011,08,13,08,06,11.90
2011,08,13,08,07,11.90
2011,08,13,08,08,12.00
2011,08,13,08,09,12.10
2011,08,13,08,10,12.10
2011,08,13,08,11,12.20
2011,08,13,08,12,12.20
2011,08,13,08,13,12.30
2011,08,13,08,14,12.30
2011,08,13,08,15,12.40
2011,08,13,08,16,12.40
2011,08,13,08,17,12.50
2011,08,13,08,18,12.60
2011,08,13,08,19,12.70
2011,08,13,08,20,12.80
2011,08,13,08,21,12.90
2011,08,13,08,22,13.00
2011,08,13,08,23,13.10
2011,08,13,08,24,13.20
2011,08,13,08,25,13.40
2011,08,13,08,26,13.50
2011,08,13,08,27,13.60
2011,08,13,08,28,13.80
2011,08,13,08,29,13.90
2011,08,13,08,30,14.00
2011,08,13,08,31,14.10
2011,08,13,08,32,14.20
2011,08,13,08,33,14.30
2011,08,13,08,34,14.40
2011,08,13,08,35,14.60
2011,08,13,08,36,14.70
2011,08,13,08,37,14.80
2011,08,13,08,38,15.00
2011,08,13,08,39,15.00
2011,08,13,08,40,15.00
2011,08,13,08,41,15.20
2011,08,13,08,42,15.30
2011,08,13,08,43,15.40
2011,08,13,08,44,15.50
2011,08,13,08,45,15.60
2011,08,13,08,46,15.60
2011,08,13,08,47,15.70
2011,08,13,08,48,15.70
2011,08,13,08,49,15.70
2011,08,13,08,50,15.80
2011,08,13,08,51,15.80
2011,08,13,08,52,15.80
2011,08,13,08,53,15.90
2011,08,13,08,54,15.90
2011,08,13,08,55,16.00
2011,08,13,08,56,16.00
2011,08,13,08,57,16.10
2011,08,13,08,58,16.20
2011,08,13,08,59,16.30
2011,08,13,09,00,16.40
2011,08,13,09,01,16.50
2011,08,13,09,02,16.50
2011,08,13,09,03,16.60
2011,08,13,09,04,16.60
2011,08,13,09,05,16.60
2011,08,13,09,06,16.60
2011,08,13,09,07,16.70
2011,08,13,09,08,16.70
2011,08,13,09,09,16.70
2011,08,13,09,10,16.70
2011,08,13,09,11,16.70
2011,08,13,09,12,16.70
2011,08,13,09,13,16.70
2011,08,13,09,14,16.70
2011,08,13,09,15,16.80
2011,08,13,09,16,16.80
2011,08,13,09,17,16.80
2011,08,13,09,18,16.80
2011,08,13,09,19,16.80
2011,08,13,09,20,16.80
2011,08,13,09,21,16.80
2011,08,13,09,22,16.80
2011,08,13,09,23,16.80
2011,08,13,09,24,16.80
2011,08,13,09,25,16.90
2011,08,13,09,26,16.90
2011,08,13,09,27,17.00
2011,08,13,09,28,17.10
2011,08,13,09,29,17.20
2011,08,13,09,30,17.30
2011,08,13,09,31,17.40
2011,08,13,09,32,17.50
2011,08,13,09,33,17.60
2011,08,13,09,34,17.70
2011,08,13,09,35,17.80
2011,08,13,09,36,17.80
2011,08,13,09,37,17.90
2011,08,13,09,38,17.90
2011,08,13,09,39,17.90
2011,08,13,09,40,17.90
2011,08,13,09,41,17.80
2011,08,13,09,42,17.80
2011,08,13,09,43,17.80
2011,08,13,09,44,17.80
2011,08,13,09,45,17.80
2011,08,13,09,46,17.80
2011,08,13,09,47,17.90
2011,08,13,09,48,17.90
2011,08,13,09,49,17.90
2011,08,13,09,50,17.90
2011,08,13,09,51,17.90
2011,08,13,09,52,17.90
2011,08,13,09,53,18.00
2011,08,13,09,54,18.10
2011,08,13,09,55,18.10
2011,08,13,09,56,18.10
2011,08,13,09,57,18.00
2011,08,13,09,58,17.90
2011,08,13,09,59,17.90
2011,08,13,10,00,17.80
2011,08,13,10,01,17.80
2011,08,13,10,02,17.80
2011,08,13,10,03,17.80
2011,08,13,10,04,17.80
2011,08,13,10,05,17.80
2011,08,13,10,06,17.80
2011,08,13,10,07,17.80
2011,08,13,10,08,17.80
2011,08,13,10,09,17.80
2011,08,13,10,10,17.80
2011,08,13,10,11,17.90
2011,08,13,10,12,18.00
2011,08,13,10,13,18.10
2011,08,13,10,14,18.20
2011,08,13,10,15,18.30
2011,08,13,10,16,18.30
2011,08,13,10,17,18.30
2011,08,13,10,18,18.30
2011,08,13,10,19,18.30
2011,08,13,10,20,18.20
2011,08,13,10,21,18.20
2011,08,13,10,22,18.10
2011,08,13,10,23,18.00
2011,08,13,10,24,17.90
2011,08,13,10,25,17.90
2011,08,13,10,26,17.90
2011,08,13,10,27,17.90
2011,08,13,10,28,17.90
2011,08,13,10,29,17.90
2011,08,13,10,30,17.90
2011,08,13,10,31,17.90
2011,08,13,10,32,17.90
2011,08,13,10,33,17.90
2011,08,13,10,34,17.80
2011,08,13,10,35,17.80
2011,08,13,10,36,17.80
2011,08,13,10,37,17.90
2011,08,13,10,38,17.90
2011,08,13,10,39,18.00
2011,08,13,10,40,18.10
2011,08,13,10,41,18.10
2011,08,13,10,42,18.10
2011,08,13,10,43,18.10
2011,08,13,10,44,18.10
2011,08,13,10,45,18.20
2011,08,13,10,46,18.20
2011,08,13,10,47,18.20
2011,08,13,10,48,18.10
2011,08,13,10,49,18.10
2011,08,13,10,50,18.10
2011,08,13,10,51,18.10
2011,08,13,10,52,18.10
2011,08,13,10,53,18.20
2011,08,13,10,54,18.20
2011,08,13,10,55,18.20
2011,08,13,10,56,18.20
2011,08,13,10,57,18.30
2011,08,13,10,58,18.30
2011,08,13,10,59,18.40
2011,08,13,11,00,18.40
2011,08,13,11,01,18.40
2011,08,13,11,02,18.50
2011,08,13,11,03,18.60
2011,08,13,11,04,18.60
2011,08,13,11,05,18.60
2011,08,13,11,06,18.60
2011,08,13,11,07,18.50
2011,08,13,11,08,18.40
2011,08,13,11,09,18.30
2011,08,13,11,10,18.30
2011,08,13,11,11,18.20
2011,08,13,11,12,18.20
2011,08,13,11,13,18.20
2011,08,13,11,14,18.30
2011,08,13,11,15,18.30
2011,08,13,11,16,18.30
2011,08,13,11,17,18.30
2011,08,13,11,18,18.40
2011,08,13,11,19,18.40
2011,08,13,11,20,18.50
2011,08,13,11,21,18.50
2011,08,13,11,22,18.60
2011,08,13,11,23,18.60
2011,08,13,11,24,18.60
2011,08,13,11,25,18.60
2011,08,13,11,26,18.70
2011,08,13,11,27,18.80
2011,08,13,11,28,18.80
2011,08,13,11,29,19.00
2011,08,13,11,30,19.10
2011,08,13,11,31,19.20
2011,08,13,11,32,19.30
2011,08,13,11,33,19.40
2011,08,13,11,34,19.40
2011,08,13,11,35,19.40
2011,08,13,11,36,19.40
2011,08,13,11,37,19.40
2011,08,13,11,38,19.40
2011,08,13,11,39,19.30
2011,08,13,11,40,19.30
2011,08,13,11,41,19.30
2011,08,13,11,42,19.30
2011,08,13,11,43,19.30
2011,08,13,11,44,19.20
2011,08,13,11,45,19.20
2011,08,13,11,46,19.20
2011,08,13,11,47,19.30
2011,08,13,11,48,19.30
2011,08,13,11,49,19.30
2011,08,13,11,50,19.40
2011,08,13,11,51,19.40
2011,08,13,11,52,19.40
2011,08,13,11,53,19.50
2011,08,13,11,54,19.50
2011,08,13,11,55,19.60
2011,08,13,11,56,19.60
2011,08,13,11,57,19.70
2011,08,13,11,58,19.70
2011,08,13,11,59,19.60
2011,08,13,12,00,19.50
2011,08,13,12,01,19.40
2011,08,13,12,02,19.30
2011,08,13,12,03,19.30
2011,08,13,12,04,19.30
2011,08,13,12,05,19.30
2011,08,13,12,06,19.40
2011,08,13,12,07,19.40
2011,08,13,12,08,19.50
2011,08,13,12,09,19.60
2011,08,13,12,10,19.70
2011,08,13,12,11,19.80
2011,08,13,12,12,19.80
2011,08,13,12,13,19.80
2011,08,13,12,14,19.80
2011,08,13,12,15,19.70
2011,08,13,12,16,19.80
2011,08,13,12,17,19.70
2011,08,13,12,18,19.70
2011,08,13,12,19,19.60
2011,08,13,12,20,19.60
2011,08,13,12,21,19.60
2011,08,13,12,22,19.60
2011,08,13,12,23,19.70
2011,08,13,12,24,19.70
2011,08,13,12,25,19.60
2011,08,13,12,26,19.50
2011,08,13,12,27,19.40
2011,08,13,12,28,19.40
2011,08,13,12,29,19.30
2011,08,13,12,30,19.40
2011,08,13,12,31,19.50
2011,08,13,12,32,19.60
2011,08,13,12,33,19.70
2011,08,13,12,34,19.70
2011,08,13,12,35,19.60
2011,08,13,12,36,19.50
2011,08,13,12,37,19.60
2011,08,13,12,38,19.60
2011,08,13,12,39,19.60
2011,08,13,12,40,19.50
2011,08,13,12,41,19.40
2011,08,13,12,42,19.40
2011,08,13,12,43,19.40
2011,08,13,12,44,19.50
2011,08,13,12,45,19.50
2011,08,13,12,46,19.60
2011,08,13,12,47,19.60
2011,08,13,12,48,19.70
2011,08,13,12,49,19.70
2011,08,13,12,50,19.70
2011,08,13,12,51,19.70
2011,08,13,12,52,19.70
2011,08,13,12,53,19.70
2011,08,13,12,54,19.70
2011,08,13,12,55,19.70
2011,08,13,12,56,19.80
2011,08,13,12,57,19.70
2011,08,13,12,58,19.80
2011,08,13,12,59,19.70
2011,08,13,13,00,19.70
2011,08,13,13,01,19.70
2011,08,13,13,02,19.70
2011,08,13,13,03,19.70
2011,08,13,13,04,19.80
2011,08,13,13,05,19.80
2011,08,13,13,06,19.80
2011,08,13,13,07,19.70
2011,08,13,13,08,19.70
2011,08,13,13,09,19.70
2011,08,13,13,10,19.70
2011,08,13,13,11,19.60
2011,08,13,13,12,19.60
2011,08,13,13,13,19.70
2011,08,13,13,14,19.70
2011,08,13,13,15,19.80
2011,08,13,13,16,19.80
2011,08,13,13,17,19.90
2011,08,13,13,18,19.90
2011,08,13,13,19,20.00
2011,08,13,13,20,20.00
2011,08,13,13,21,20.10
2011,08,13,13,22,20.10
2011,08,13,13,23,20.00
2011,08,13,13,24,20.00
2011,08,13,13,25,20.00
2011,08,13,13,26,20.00
2011,08,13,13,27,19.90
2011,08,13,13,28,19.90
2011,08,13,13,29,19.80
2011,08,13,13,30,19.80
2011,08,13,13,31,19.90
2011,08,13,13,32,20.00
2011,08,13,13,33,20.10
2011,08,13,13,34,20.20
2011,08,13,13,35,20.20
2011,08,13,13,36,20.10
2011,08,13,13,37,20.10
2011,08,13,13,38,20.10
2011,08,13,13,39,20.10
2011,08,13,13,40,20.20
2011,08,13,13,41,20.30
2011,08,13,13,42,20.30
2011,08,13,13,43,20.30
2011,08,13,13,44,20.30
2011,08,13,13,45,20.40
2011,08,13,13,46,20.40
2011,08,13,13,47,20.40
2011,08,13,13,48,20.30
2011,08,13,13,49,20.20
2011,08,13,13,50,20.10
2011,08,13,13,51,19.90
2011,08,13,13,52,19.90
2011,08,13,13,53,19.80
2011,08,13,13,54,19.80
2011,08,13,13,55,19.90
2011,08,13,13,56,19.90
2011,08,13,13,57,20.00
2011,08,13,13,58,20.10
2011,08,13,13,59,20.20
2011,08,13,14,00,20.30
2011,08,13,14,01,20.40
2011,08,13,14,02,20.40
2011,08,13,14,03,20.40
2011,08,13,14,04,20.40
2011,08,13,14,05,20.40
2011,08,13,14,06,20.50
2011,08,13,14,07,20.50
2011,08,13,14,08,20.60
2011,08,13,14,09,20.60
2011,08,13,14,10,20.70
2011,08,13,14,11,20.70
2011,08,13,14,12,20.70
2011,08,13,14,13,20.60
2011,08,13,14,14,20.50
2011,08,13,14,15,20.50
2011,08,13,14,16,20.40
2011,08,13,14,17,20.50
2011,08,13,14,18,20.60
2011,08,13,14,19,20.60
2011,08,13,14,20,20.70
2011,08,13,14,21,20.70
2011,08,13,14,22,20.80
2011,08,13,14,23,20.80
2011,08,13,14,24,20.70
2011,08,13,14,25,20.70
2011,08,13,14,26,20.60
2011,08,13,14,27,20.60
2011,08,13,14,28,20.60
2011,08,13,14,29,20.50
2011,08,13,14,30,20.50
2011,08,13,14,31,20.60
2011,08,13,14,32,20.60
2011,08,13,14,33,20.60
2011,08,13,14,34,20.70
2011,08,13,14,35,20.80
2011,08,13,14,36,20.90
2011,08,13,14,37,21.00
2011,08,13,14,38,21.00
2011,08,13,14,39,20.90
2011,08,13,14,40,20.80
2011,08,13,14,41,20.60
2011,08,13,14,42,20.40
2011,08,13,14,43,20.30
2011,08,13,14,44,20.30
2011,08,13,14,45,20.20
2011,08,13,14,46,20.10
2011,08,13,14,47,20.10
2011,08,13,14,48,20.00
2011,08,13,14,49,20.00
2011,08,13,14,50,20.00
2011,08,13,14,51,20.00
2011,08,13,14,52,20.00
2011,08,13,14,53,20.00
2011,08,13,14,54,20.10
2011,08,13,14,55,20.10
2011,08,13,14,56,20.20
2011,08,13,14,57,20.30
2011,08,13,14,58,20.40
2011,08,13,14,59,20.50
2011,08,13,15,00,20.50
2011,08,13,15,01,20.40
2011,08,13,15,02,20.40
2011,08,13,15,03,20.40
2011,08,13,15,04,20.40
2011,08,13,15,05,20.40
2011,08,13,15,06,20.40
2011,08,13,15,07,20.40
2011,08,13,15,08,20.40
2011,08,13,15,09,20.40
2011,08,13,15,10,20.40
2011,08,13,15,11,20.50
2011,08,13,15,12,20.50
2011,08,13,15,13,20.50
2011,08,13,15,14,20.50
2011,08,13,15,15,20.50
2011,08,13,15,16,20.40
2011,08,13,15,17,20.30
2011,08,13,15,18,20.30
2011,08,13,15,19,20.20
2011,08,13,15,20,20.20
2011,08,13,15,21,20.10
2011,08,13,15,22,20.10
2011,08,13,15,23,20.10
2011,08,13,15,24,20.00
2011,08,13,15,25,20.00
2011,08,13,15,26,20.10
2011,08,13,15,27,20.10
2011,08,13,15,28,20.20
2011,08,13,15,29,20.30
2011,08,13,15,30,20.30
2011,08,13,15,31,20.30
2011,08,13,15,32,20.30
2011,08,13,15,33,20.30
2011,08,13,15,34,20.30
2011,08,13,15,35,20.30
2011,08,13,15,36,20.30
2011,08,13,15,37,20.40
2011,08,13,15,38,20.40
2011,08,13,15,39,20.40
2011,08,13,15,40,20.50
2011,08,13,15,41,20.50
2011,08,13,15,42,20.50
2011,08,13,15,43,20.40
2011,08,13,15,44,20.40
2011,08,13,15,45,20.40
2011,08,13,15,46,20.30
2011,08,13,15,47,20.20
2011,08,13,15,48,20.10
2011,08,13,15,49,20.10
2011,08,13,15,50,20.10
2011,08,13,15,51,20.10
2011,08,13,15,52,20.10
2011,08,13,15,53,20.20
2011,08,13,15,54,20.20
2011,08,13,15,55,20.10
2011,08,13,15,56,20.00
2011,08,13,15,57,19.90
2011,08,13,15,58,19.80
2011,08,13,15,59,19.80
2011,08,13,16,00,19.80
2011,08,13,16,01,19.80
2011,08,13,16,02,19.70
2011,08,13,16,03,19.70
2011,08,13,16,04,19.70
2011,08,13,16,05,19.70
2011,08,13,16,06,19.60
2011,08,13,16,07,19.60
2011,08,13,16,08,19.60
2011,08,13,16,09,19.60
2011,08,13,16,10,19.60
2011,08,13,16,11,19.60
2011,08,13,16,12,19.60
2011,08,13,16,13,19.60
2011,08,13,16,14,19.60
2011,08,13,16,15,19.70
2011,08,13,16,16,19.70
2011,08,13,16,17,19.70
2011,08,13,16,18,19.70
2011,08,13,16,19,19.70
2011,08,13,16,20,19.60
2011,08,13,16,21,19.60
2011,08,13,16,22,19.60
2011,08,13,16,23,19.60
2011,08,13,16,24,19.50
2011,08,13,16,25,19.50
2011,08,13,16,26,19.50
2011,08,13,16,27,19.40
2011,08,13,16,28,19.40
2011,08,13,16,29,19.40
2011,08,13,16,30,19.40
2011,08,13,16,31,19.40
2011,08,13,16,32,19.40
2011,08,13,16,33,19.40
2011,08,13,16,34,19.40
2011,08,13,16,35,19.40
2011,08,13,16,36,19.40
2011,08,13,16,37,19.40
2011,08,13,16,38,19.50
2011,08,13,16,39,19.50
2011,08,13,16,40,19.50
2011,08,13,16,41,19.60
2011,08,13,16,42,19.60
2011,08,13,16,43,19.60
2011,08,13,16,44,19.60
2011,08,13,16,45,19.50
2011,08,13,16,46,19.50
2011,08,13,16,47,19.50
2011,08,13,16,48,19.40
2011,08,13,16,49,19.40
2011,08,13,16,50,19.40
2011,08,13,16,51,19.40
2011,08,13,16,52,19.40
2011,08,13,16,53,19.40
2011,08,13,16,54,19.30
2011,08,13,16,55,19.30
2011,08,13,16,56,19.30
2011,08,13,16,57,19.30
2011,08,13,16,58,19.30
2011,08,13,16,59,19.30
2011,08,13,17,00,19.30
2011,08,13,17,01,19.30
2011,08,13,17,02,19.30
2011,08,13,17,03,19.30
2011,08,13,17,04,19.20
2011,08,13,17,05,19.20
2011,08,13,17,06,19.10
2011,08,13,17,07,19.10
2011,08,13,17,08,19.10
2011,08,13,17,09,19.10
2011,08,13,17,10,19.10
2011,08,13,17,11,19.10
2011,08,13,17,12,19.00
2011,08,13,17,13,19.00
2011,08,13,17,14,19.00
2011,08,13,17,15,19.00
2011,08,13,17,16,19.00
2011,08,13,17,17,19.00
2011,08,13,17,18,19.00
2011,08,13,17,19,19.00
2011,08,13,17,20,18.90
2011,08,13,17,21,18.90
2011,08,13,17,22,18.90
2011,08,13,17,23,18.90
2011,08,13,17,24,19.00
2011,08,13,17,25,19.00
2011,08,13,17,26,19.00
2011,08,13,17,27,19.00
2011,08,13,17,28,19.00
2011,08,13,17,29,19.00
2011,08,13,17,30,19.00
2011,08,13,17,31,19.00